FENGYUN 1C DEB, 31878

Orbit data source: Space-Track

FENGYUN 1C DEB, 31878 is space debris in SSO originally from a launch on Mon, 10 May 1999 UTC launched from the Taiyaun Space Center, China (TSC). Fengyun 1C debris stems from the Chinese weather satellite Fengyun-1C, which was intentionally destroyed by a Chinese anti-satellite missile in 2007. This event dramatically increased the amount of space debris, with thousands of trackable fragments posing hazards to satellites and human spaceflight. The Fengyun 1C debris cloud has become a focal point in discussions about space sustainability and the need for international regulations to prevent the creation of new debris.

Loading next visibility...
Identifier
31878, 1999-025CKD
Orbit
SSO
Country
Flag of CNCN / PRC
Related business
Manufacturer
Unknown
Mission
Spacecraft
Bus & Motor
Unknown
Mass
Unknown
Launch date (UTC)
1999-05-10 (27 years ago)
Launch vehicle
Unknown
Launch site
Taiyaun Space Center, China (TSC)
Object type
Payload
Rocket body
Debris
Shape & HBR
Unknown shape, 0.1 m
Radar Cross Section
Small (<0.1 m²)

Expand to show TLE details & history
Last TLE update: 2 weeks ago

TLE from 2 weeks ago
0 FENGYUN 1C DEB
1 31878U 99025CKD 25337.01923088  .00017800  00000-0  19397-2 0  9990
2 31878  99.4399 258.7733 0084274 269.6043  89.5510 14.85464766979499
Epoch: 2025-12-03T00:27Z
TLE epoch observation values (Epoch: 2025-12-03T00:27:41.548Z)
Latitude
0.00002°
Longitude
179.75414°
Altitude
615.141 km
Speed
7.551 km/s
True Right ascension
17h 15m 05s
True Declination
0° 00' 00"
Sunlit
Object was in daylight at epoch
Visualization orbit readout
Latitude
Unknown
Longitude
Unknown
Altitude
Unknown
Speed
Unknown
Apparent Right ascension
Unknown
Apparent Declination
Unknown
Sunlit
N/A
Visualization observer readout
Local Sidereal Time
23:15:33
Azimuth
Unknown
Elevation
Unknown
Doppler factor
Unknown
Orbital elements
Apogee altitude
668.122 km
Perigee altitude
550.351 km
Semi-major axis
6,987.373 km
Eccentricity
0.00843
Inclination
99.4399°
RAAN
258.7733°
Arg. of periapsis
269.6043°
True anomaly
90.51671°
Mean anomaly
89.551°
Eccentric anomaly
90.03385°
Mean motion
3.71597 °/min
Orbital period
96.88 mins
BSTAR
0.0019397
Loading maneuver chart data...
Computing Atmospheric mass density...

Documentation

Showing up to 5 results
|